Location: Mount Tamalpais State Park
(37.9108°N, 122.6128°W)
Time: 16:28:06
(UTC-07:00)

Cosmos 1814 Rocket - Visible Passes

Search period start: 19 April 2018 00:00
Search period end: 29 April 2018 00:00
Orbit: 745 x 787 km, 74.1° (Epoch: 19 April)

Date Brightness Start Highest point End Pass type
(mag) Time Alt. Az. Time Alt. Az. Time Alt. Az.
19 Apr 6.6 03:10:38 10° ESE 03:11:57 11° E 03:13:29 10° ENE visible
19 Apr 3.9 04:50:52 32° SSW 04:53:14 71° WNW 04:58:24 10° NNE visible
20 Apr 4.2 04:14:20 46° SSE 04:15:40 64° ESE 04:20:48 10° NNE visible
20 Apr 5.8 05:55:18 10° W 05:58:11 15° WNW 06:01:04 10° NNW visible
21 Apr 5.1 03:37:43 34° ESE 03:38:14 35° E 03:42:53 10° NE visible
21 Apr 5.2 05:17:57 18° W 05:20:17 25° WNW 05:24:31 10° N visible
22 Apr 6.0 03:01:04 20° E 03:01:04 20° E 03:04:31 10° NE visible
22 Apr 4.4 04:41:18 36° WSW 04:42:30 43° WNW 04:47:26 10° N visible
23 Apr 3.8 04:04:35 74° WSW 04:04:51 77° WNW 04:10:03 10° NNE visible
24 Apr 4.4 03:27:51 56° ENE 03:27:51 56° ENE 03:32:25 10° NNE visible
24 Apr 5.7 05:08:05 14° W 05:09:46 16° WNW 05:12:55 10° NNW visible
25 Apr 5.6 02:51:04 29° ENE 02:51:04 29° ENE 02:54:28 10° NE visible
25 Apr 5.1 04:31:17 26° WNW 04:31:53 27° WNW 04:36:15 10° N visible
26 Apr 6.4 02:14:15 16° ENE 02:14:15 16° ENE 02:16:00 10° NE visible
26 Apr 4.5 03:54:28 45° NW 03:54:28 45° NW 03:59:07 10° N visible
27 Apr 4.5 03:17:37 56° N 03:17:37 56° N 03:21:42 10° NNE visible
28 Apr 5.3 02:40:44 37° NE 02:40:44 37° NE 02:44:02 10° NNE visible
28 Apr 5.7 04:20:58 17° WNW 04:21:21 17° WNW 04:24:45 10° NNW visible
